| time (UTC) | temp F | wind direction | speed MPH | gust MPH | rain 1hr in | rain 24hr in | rain mn in | humidity % | barometer mb |
| 20260506023703 | 33 | 355 | 0.0 | 0.0 | 0.00 | 0.21 | 0.17 | 95 | 1016.4 |
| 20260506023203 | 33 | 355 | 0.0 | 0.0 | 0.00 | 0.21 | 0.17 | 95 | 1016.3 |
| 20260506022703 | 33 | 355 | 0.0 | 0.0 | 0.00 | 0.21 | 0.17 | 95 | 1016.2 |
| 20260506022203 | 33 | 355 | 0.0 | 0.0 | 0.00 | 0.21 | 0.17 | 95 | 1016.1 |
| 20260506021703 | 33 | 355 | 0.0 | 0.0 | 0.01 | 0.21 | 0.17 | 95 | 1016.0 |
| 20260506020703 | 33 | 355 | 0.0 | 0.0 | 0.01 | 0.21 | 0.17 | 95 | 1015.8 |
| 20260506020203 | 33 | 355 | 0.0 | 0.0 | 0.01 | 0.21 | 0.17 | 95 | 1015.8 |
| 20260506015704 | 33 | 355 | 0.0 | 0.0 | 0.01 | 0.21 | 0.17 | 95 | 1015.8 |
| 20260506015204 | 33 | 355 | 0.0 | 0.0 | 0.01 | 0.21 | 0.17 | 95 | 1015.6 |
| 20260506014703 | 33 | 355 | 0.0 | 0.0 | 0.01 | 0.21 | 0.17 | 95 | 1015.6 |
| 20260506014203 | 33 | 355 | 0.0 | 0.0 | 0.01 | 0.21 | 0.17 | 95 | 1015.6 |
| 20260506013704 | 33 | 355 | 0.0 | 0.0 | 0.01 | 0.21 | 0.17 | 95 | 1015.6 |
| 20260506013203 | 33 | 355 | 0.0 | 0.0 | 0.01 | 0.21 | 0.17 | 95 | 1015.7 |
| 20260506012703 | 33 | 355 | 0.0 | 0.0 | 0.01 | 0.21 | 0.17 | 95 | 1015.6 |
| 20260506012203 | 33 | 355 | 0.0 | 0.0 | 0.01 | 0.21 | 0.17 | 95 | 1015.6 |
| 20260506011703 | 33 | 355 | 0.0 | 0.0 | 0.00 | 0.20 | 0.16 | 95 | 1015.4 |
| 20260506010703 | 33 | 355 | 0.0 | 2.0 | 0.00 | 0.20 | 0.16 | 95 | 1015.4 |
| 20260506010203 | 33 | 355 | 0.0 | 0.0 | 0.00 | 0.20 | 0.16 | 95 | 1015.4 |
| 20260506005703 | 33 | 355 | 0.0 | 0.0 | 0.00 | 0.20 | 0.16 | 95 | 1015.3 |
| 20260506005203 | 33 | 355 | 0.0 | 0.0 | 0.00 | 0.20 | 0.16 | 95 | 1015.4 |
| 20260506004704 | 33 | 355 | 0.0 | 0.0 | 0.00 | 0.20 | 0.16 | 95 | 1015.5 |
| 20260506004203 | 33 | 355 | 0.0 | 0.0 | 0.00 | 0.20 | 0.16 | 95 | 1015.3 |
| 20260506003704 | 33 | 355 | 0.0 | 0.0 | 0.00 | 0.20 | 0.16 | 95 | 1015.2 |
| 20260506003204 | 33 | 355 | 0.0 | 0.0 | 0.00 | 0.20 | 0.16 | 95 | 1015.2 |
| 20260506002704 | 33 | 355 | 0.0 | 0.0 | 0.00 | 0.20 | 0.16 | 95 | 1015.3 |
| 20260506002204 | 33 | 355 | 0.0 | 0.0 | 0.00 | 0.20 | 0.16 | 95 | 1015.3 |
| 20260506001704 | 33 | 355 | 0.0 | 0.0 | 0.00 | 0.20 | 0.16 | 95 | 1015.3 |
| 20260506001203 | 33 | 355 | 0.0 | 0.0 | 0.00 | 0.20 | 0.16 | 95 | 1015.2 |
| 20260506000703 | 33 | 27 | 0.0 | 0.0 | 0.00 | 0.20 | 0.16 | 95 | 1015.2 |
| 20260506000204 | 33 | 26 | 0.0 | 0.0 | 0.00 | 0.20 | 0.16 | 95 | 1015.2 |
| 20260505235203 | 33 | 5 | 0.0 | 0.0 | 0.00 | 0.20 | 0.16 | 95 | 1015.1 |
| 20260505234703 | 33 | 19 | 0.0 | 0.0 | 0.00 | 0.20 | 0.16 | 94 | 1015.0 |
| 20260505234203 | 33 | 19 | 0.0 | 0.0 | 0.00 | 0.20 | 0.16 | 94 | 1015.0 |
| 20260505233703 | 33 | 19 | 0.0 | 0.0 | 0.00 | 0.20 | 0.16 | 94 | 1015.1 |
| 20260505233203 | 33 | 19 | 0.0 | 2.0 | 0.00 | 0.20 | 0.16 | 94 | 1015.0 |
| 20260505232704 | 33 | 17 | 1.0 | 3.0 | 0.00 | 0.20 | 0.16 | 94 | 1014.9 |
| 20260505232203 | 33 | 355 | 0.0 | 3.0 | 0.00 | 0.20 | 0.16 | 94 | 1014.8 |
| 20260505231703 | 33 | 340 | 1.0 | 5.0 | 0.01 | 0.20 | 0.16 | 94 | 1014.7 |
| 20260505231203 | 34 | 357 | 2.0 | 9.0 | 0.01 | 0.20 | 0.16 | 94 | 1014.7 |
| 20260505230703 | 34 | 18 | 2.0 | 6.0 | 0.01 | 0.20 | 0.16 | 94 | 1014.7 |
| 20260505230203 | 34 | 19 | 2.0 | 8.0 | 0.01 | 0.20 | 0.16 | 94 | 1014.7 |
| 20260505225703 | 34 | 19 | 2.0 | 3.0 | 0.01 | 0.20 | 0.16 | 94 | 1014.8 |
| 20260505225203 | 34 | 10 | 0.0 | 3.0 | 0.01 | 0.20 | 0.16 | 94 | 1014.9 |
| 20260505224703 | 34 | 10 | 1.0 | 3.0 | 0.01 | 0.20 | 0.16 | 93 | 1014.9 |
| 20260505224203 | 35 | 327 | 1.0 | 3.0 | 0.01 | 0.20 | 0.16 | 93 | 1014.8 |
| 20260505222203 | 36 | 323 | 4.0 | 10.0 | 0.01 | 0.20 | 0.16 | 93 | 1014.1 |
| 20260505221703 | 36 | 351 | 2.0 | 10.0 | 0.00 | 0.19 | 0.15 | 93 | 1014.2 |
| 20260505220703 | 37 | 347 | 2.0 | 12.0 | 0.00 | 0.19 | 0.15 | 93 | 1014.2 |
| 20260505215203 | 39 | 13 | 4.0 | 9.0 | 0.00 | 0.19 | 0.15 | 93 | 1013.8 |
| 20260505214703 | 39 | 30 | 2.0 | 5.0 | 0.00 | 0.19 | 0.15 | 93 | 1013.8 |
| 20260505214203 | 39 | 47 | 3.0 | 12.0 | 0.01 | 0.19 | 0.15 | 94 | 1013.8 |
| 20260505213703 | 39 | 1 | 2.0 | 6.0 | 0.01 | 0.19 | 0.15 | 93 | 1013.8 |
| 20260505213203 | 39 | 30 | 2.0 | 6.0 | 0.01 | 0.19 | 0.15 | 94 | 1013.9 |
| 20260505212703 | 39 | 38 | 2.0 | 5.0 | 0.01 | 0.19 | 0.15 | 94 | 1014.0 |
| 20260505211203 | 39 | 49 | 2.0 | 5.0 | 0.01 | 0.19 | 0.15 | 94 | 1014.0 |
| 20260505205704 | 39 | 49 | 1.0 | 3.0 | 0.01 | 0.19 | 0.15 | 94 | 1014.1 |
| 20260505205203 | 39 | 49 | 1.0 | 3.0 | 0.01 | 0.19 | 0.15 | 94 | 1014.2 |
| 20260505204703 | 39 | 19 | 1.0 | 3.0 | 0.01 | 0.19 | 0.15 | 94 | 1014.3 |
| 20260505204203 | 39 | 0 | 1.0 | 3.0 | 0.00 | 0.18 | 0.14 | 94 | 1014.4 |
| 20260505203703 | 39 | 9 | 1.0 | 8.0 | 0.00 | 0.18 | 0.14 | 94 | 1014.5 |
| 20260505203203 | 39 | 65 | 1.0 | 3.0 | 0.00 | 0.18 | 0.14 | 94 | 1014.5 |
| 20260505202702 | 40 | 355 | 2.0 | 5.0 | 0.00 | 0.18 | 0.14 | 94 | 1014.7 |
| 20260505202203 | 39 | 51 | 2.0 | 5.0 | 0.00 | 0.18 | 0.14 | 94 | 1014.8 |
| 20260505201703 | 39 | 61 | 1.0 | 5.0 | 0.00 | 0.19 | 0.14 | 94 | 1014.8 |
| 20260505195203 | 40 | 44 | 2.0 | 5.0 | 0.00 | 0.20 | 0.14 | 94 | 1014.9 |
| 20260505194203 | 40 | 32 | 2.0 | 3.0 | 0.02 | 0.26 | 0.38 | 94 | 1014.8 |
| 20260505193203 | 40 | 75 | 2.0 | 3.0 | 0.00 | 0.27 | 0.24 | 94 | 1014.8 |
| 20260505192202 | 39 | 48 | 3.0 | 3.0 | 0.00 | 0.32 | 0.24 | 94 | 1014.7 |
| 20260505191203 | 39 | 17 | 0.0 | 2.0 | 0.00 | 0.32 | 0.12 | 95 | 1015.2 |
| 20260505174205 | 39 | 11 | 1.0 | 3.0 | 0.01 | 0.32 | 0.12 | 95 | 1015.7 |
| 20260505173705 | 38 | 15 | 1.0 | 3.0 | 0.01 | 0.32 | 0.12 | 95 | 1015.7 |
| 20260505173205 | 38 | 49 | 1.0 | 5.0 | 0.01 | 0.32 | 0.12 | 94 | 1015.8 |
| 20260505172705 | 38 | 19 | 2.0 | 5.0 | 0.01 | 0.32 | 0.12 | 94 | 1015.9 |
| 20260505172205 | 38 | 11 | 2.0 | 3.0 | 0.01 | 0.32 | 0.12 | 95 | 1015.8 |
| 20260505171705 | 38 | 51 | 1.0 | 3.0 | 0.01 | 0.32 | 0.12 | 95 | 1015.9 |
| 20260505170705 | 38 | 13 | 0.0 | 2.0 | 0.01 | 0.32 | 0.12 | 95 | 1015.9 |
| 20260505170205 | 38 | 13 | 2.0 | 3.0 | 0.01 | 0.32 | 0.12 | 95 | 1015.9 |
| 20260505165704 | 38 | 13 | 1.0 | 3.0 | 0.01 | 0.32 | 0.12 | 95 | 1015.9 |
| 20260505165205 | 38 | 9 | 0.0 | 2.0 | 0.00 | 0.31 | 0.11 | 95 | 1015.9 |
| 20260505163705 | 38 | 30 | 1.0 | 3.0 | 0.00 | 0.31 | 0.11 | 95 | 1016.0 |
| 20260505163206 | 38 | 5 | 0.0 | 1.0 | 0.01 | 0.31 | 0.11 | 95 | 1016.1 |
| 20260505162705 | 38 | 5 | 0.0 | 3.0 | 0.01 | 0.31 | 0.11 | 95 | 1016.1 |
| 20260505162205 | 38 | 4 | 0.0 | 3.0 | 0.01 | 0.31 | 0.11 | 95 | 1016.1 |
| 20260505161704 | 37 | 61 | 0.0 | 3.0 | 0.01 | 0.31 | 0.11 | 95 | 1016.1 |
| 20260505161204 | 37 | 72 | 0.0 | 3.0 | 0.01 | 0.31 | 0.11 | 95 | 1016.2 |
| 20260505160705 | 37 | 72 | 2.0 | 3.0 | 0.01 | 0.31 | 0.11 | 95 | 1016.1 |
| 20260505160205 | 37 | 68 | 1.0 | 7.0 | 0.01 | 0.31 | 0.11 | 95 | 1016.2 |
| 20260505153204 | 37 | 11 | 1.0 | 2.0 | 0.00 | 0.30 | 0.10 | 94 | 1016.3 |
| 20260505152705 | 37 | 11 | 0.0 | 3.0 | 0.00 | 0.30 | 0.10 | 94 | 1016.4 |
| 20260505152205 | 37 | 11 | 1.0 | 3.0 | 0.00 | 0.30 | 0.10 | 94 | 1016.3 |
| 20260505151705 | 37 | 11 | 0.0 | 3.0 | 0.01 | 0.30 | 0.10 | 94 | 1016.4 |
| 20260505151204 | 37 | 11 | 0.0 | 1.0 | 0.01 | 0.30 | 0.10 | 94 | 1016.3 |
| 20260505150205 | 37 | 11 | 0.0 | 2.0 | 0.01 | 0.30 | 0.10 | 95 | 1016.4 |
| 20260505140205 | 36 | 11 | 1.0 | 3.0 | 0.01 | 0.29 | 0.09 | 94 | 1016.7 |
| 20260505130204 | 36 | 15 | 1.0 | 3.0 | 0.01 | 0.28 | 0.08 | 93 | 1016.1 |
| 20260505124705 | 36 | 22 | 3.0 | 9.0 | 0.01 | 0.27 | 0.07 | 93 | 1015.7 |
| 20260505124204 | 36 | 0 | 2.0 | 5.0 | 0.01 | 0.27 | 0.07 | 93 | 1015.6 |
| 20260505123705 | 36 | 0 | 2.0 | 5.0 | 0.01 | 0.27 | 0.07 | 93 | 1015.6 |
| 20260505123205 | 37 | 349 | 0.0 | 9.0 | 0.01 | 0.27 | 0.07 | 93 | 1015.5 |
| 20260505122704 | 37 | 11 | 3.0 | 8.0 | 0.01 | 0.27 | 0.07 | 93 | 1015.5 |
| 20260505122205 | 37 | 328 | 1.0 | 3.0 | 0.02 | 0.27 | 0.07 | 93 | 1015.6 |
| 20260505121705 | 37 | 297 | 2.0 | 6.0 | 0.03 | 0.27 | 0.07 | 93 | 1015.6 |
| 20260505121204 | 37 | 10 | 3.0 | 10.0 | 0.03 | 0.27 | 0.07 | 92 | 1015.5 |
| 20260505120704 | 37 | 0 | 2.0 | 5.0 | 0.05 | 0.27 | 0.07 | 93 | 1015.4 |
| 20260505120204 | 37 | 0 | 2.0 | 7.0 | 0.05 | 0.27 | 0.07 | 92 | 1015.4 |
| 20260505115705 | 38 | 14 | 1.0 | 3.0 | 0.05 | 0.27 | 0.07 | 92 | 1015.3 |
| 20260505114204 | 38 | 20 | 3.0 | 10.0 | 0.05 | 0.26 | 0.06 | 92 | 1015.3 |
| 20260505113704 | 38 | 2 | 3.0 | 6.0 | 0.05 | 0.26 | 0.06 | 92 | 1015.3 |
| 20260505113204 | 39 | 350 | 3.0 | 12.0 | 0.05 | 0.26 | 0.06 | 92 | 1015.3 |
| 20260505112704 | 39 | 46 | 3.0 | 14.0 | 0.05 | 0.26 | 0.06 | 92 | 1015.1 |
| 20260505112204 | 39 | 14 | 6.0 | 12.0 | 0.04 | 0.25 | 0.05 | 92 | 1015.1 |
| 20260505111204 | 40 | 83 | 1.0 | 3.0 | 0.03 | 0.24 | 0.04 | 92 | 1015.1 |
| 20260505110204 | 40 | 356 | 4.0 | 8.0 | 0.01 | 0.22 | 0.02 | 92 | 1014.9 |
| 20260505102204 | 41 | 322 | 4.0 | 13.0 | 0.00 | 0.21 | 0.01 | 92 | 1014.1 |
| 20260505101704 | 41 | 12 | 6.0 | 16.0 | 0.00 | 0.21 | 0.01 | 92 | 1014.0 |
| 20260505101204 | 41 | 346 | 4.0 | 12.0 | 0.00 | 0.21 | 0.01 | 92 | 1013.9 |
| 20260505100704 | 42 | 354 | 4.0 | 14.0 | 0.00 | 0.21 | 0.01 | 92 | 1014.0 |
| 20260505100204 | 42 | 354 | 5.0 | 12.0 | 0.00 | 0.21 | 0.01 | 92 | 1014.0 |
| 20260505095704 | 42 | 2 | 3.0 | 9.0 | 0.00 | 0.21 | 0.01 | 92 | 1013.9 |
| 20260505095205 | 42 | 13 | 5.0 | 12.0 | 0.00 | 0.21 | 0.01 | 93 | 1013.8 |
| 20260505094704 | 42 | 18 | 0.0 | 6.0 | 0.00 | 0.21 | 0.01 | 93 | 1013.7 |
| 20260505094204 | 42 | 50 | 3.0 | 8.0 | 0.01 | 0.21 | 0.01 | 93 | 1013.6 |
| 20260505093704 | 42 | 9 | 2.0 | 10.0 | 0.01 | 0.21 | 0.01 | 93 | 1013.7 |
| 20260505093204 | 42 | 339 | 2.0 | 8.0 | 0.01 | 0.21 | 0.01 | 92 | 1013.7 |
| 20260505092704 | 43 | 318 | 3.0 | 13.0 | 0.01 | 0.21 | 0.01 | 92 | 1013.6 |
| 20260505091704 | 43 | 3 | 3.0 | 9.0 | 0.01 | 0.21 | 0.01 | 92 | 1013.7 |
| 20260505091204 | 43 | 329 | 2.0 | 5.0 | 0.01 | 0.21 | 0.01 | 92 | 1013.6 |
| 20260505090705 | 43 | 30 | 2.0 | 6.0 | 0.01 | 0.21 | 0.01 | 92 | 1013.5 |
| 20260505090203 | 43 | 351 | 3.0 | 15.0 | 0.01 | 0.21 | 0.01 | 92 | 1013.5 |
| 20260505085204 | 44 | 339 | 1.0 | 6.0 | 0.01 | 0.21 | 0.01 | 92 | 1013.6 |
| 20260505084704 | 44 | 316 | 2.0 | 10.0 | 0.01 | 0.21 | 0.01 | 91 | 1013.5 |
| 20260505084204 | 45 | 294 | 3.0 | 10.0 | 0.00 | 0.20 | 0.00 | 91 | 1013.4 |
| 20260505083704 | 45 | 4 | 3.0 | 10.0 | 0.00 | 0.20 | 0.00 | 91 | 1013.4 |
| 20260505083204 | 47 | 4 | 5.0 | 10.0 | 0.00 | 0.20 | 0.00 | 92 | 1013.4 |
| 20260505082703 | 47 | 355 | 1.0 | 7.0 | 0.00 | 0.20 | 0.00 | 93 | 1013.4 |
| 20260505081704 | 47 | 178 | 0.0 | 0.0 | 0.00 | 0.20 | 0.00 | 93 | 1013.4 |
| 20260505081204 | 46 | 178 | 0.0 | 0.0 | 0.00 | 0.20 | 0.00 | 92 | 1013.3 |
| 20260505080704 | 46 | 178 | 0.0 | 0.0 | 0.00 | 0.20 | 0.00 | 92 | 1013.4 |
| 20260505080205 | 46 | 178 | 0.0 | 0.0 | 0.00 | 0.20 | 0.00 | 92 | 1013.3 |
| 20260505075705 | 46 | 178 | 0.0 | 0.0 | 0.00 | 0.20 | 0.00 | 92 | 1013.3 |
| 20260505075204 | 46 | 178 | 0.0 | 0.0 | 0.00 | 0.20 | 0.00 | 92 | 1013.2 |
| 20260505074704 | 46 | 178 | 0.0 | 0.0 | 0.00 | 0.20 | 0.00 | 92 | 1013.2 |
| 20260505073704 | 46 | 178 | 0.0 | 0.0 | 0.00 | 0.20 | 0.00 | 92 | 1013.3 |
| 20260505072704 | 46 | 178 | 0.0 | 1.0 | 0.00 | 0.20 | 0.00 | 92 | 1013.3 |
| 20260505072205 | 47 | 178 | 0.0 | 0.0 | 0.00 | 0.20 | 0.00 | 92 | 1013.1 |
| 20260505071704 | 47 | 178 | 0.0 | 3.0 | 0.00 | 0.20 | 0.00 | 92 | 1013.3 |
| 20260505071204 | 47 | 177 | 0.0 | 3.0 | 0.00 | 0.20 | 0.00 | 92 | 1013.3 |
| 20260505070704 | 46 | 258 | 0.0 | 2.0 | 0.00 | 0.20 | 0.00 | 92 | 1013.4 |
| 20260505070204 | 46 | 258 | 0.0 | 0.0 | 0.00 | 0.20 | 0.00 | 91 | 1013.5 |
| 20260505064703 | 46 | 258 | 0.0 | 1.0 | 0.00 | 0.20 | 0.00 | 91 | 1013.4 |
| 20260505064204 | 46 | 258 | 0.0 | 1.0 | 0.00 | 0.20 | 0.00 | 91 | 1013.4 |
| 20260505063704 | 46 | 258 | 0.0 | 0.0 | 0.00 | 0.20 | 0.00 | 91 | 1013.4 |
| 20260505063204 | 46 | 258 | 0.0 | 0.0 | 0.00 | 0.20 | 0.00 | 91 | 1013.4 |
| 20260505062704 | 46 | 258 | 0.0 | 1.0 | 0.00 | 0.20 | 0.00 | 90 | 1013.4 |
| 20260505061704 | 46 | 258 | 0.0 | 0.0 | 0.00 | 0.20 | 0.00 | 90 | 1013.4 |
| 20260505061204 | 46 | 258 | 0.0 | 0.0 | 0.00 | 0.20 | 0.00 | 90 | 1013.4 |
| 20260505060705 | 46 | 258 | 0.0 | 0.0 | 0.00 | 0.20 | 0.00 | 90 | 1013.5 |
| 20260505060204 | 46 | 258 | 0.0 | 0.0 | 0.00 | 0.20 | 0.00 | 90 | 1013.5 |
| 20260505055703 | 46 | 258 | 0.0 | 0.0 | 0.00 | 0.20 | 0.20 | 90 | 1013.5 |
| 20260505055204 | 46 | 258 | 0.0 | 0.0 | 0.00 | 0.20 | 0.20 | 90 | 1013.5 |
| 20260505054704 | 46 | 258 | 0.0 | 0.0 | 0.00 | 0.20 | 0.20 | 89 | 1013.5 |
| 20260505053704 | 46 | 258 | 0.0 | 0.0 | 0.00 | 0.20 | 0.20 | 89 | 1013.4 |
| 20260505053205 | 47 | 258 | 0.0 | 0.0 | 0.00 | 0.20 | 0.20 | 89 | 1013.3 |
| 20260505052704 | 47 | 258 | 0.0 | 0.0 | 0.00 | 0.20 | 0.20 | 89 | 1013.3 |
| 20260505052204 | 47 | 258 | 0.0 | 0.0 | 0.00 | 0.20 | 0.20 | 89 | 1013.3 |
| 20260505051704 | 47 | 258 | 0.0 | 0.0 | 0.00 | 0.20 | 0.20 | 89 | 1013.4 |
| 20260505051203 | 47 | 258 | 0.0 | 0.0 | 0.00 | 0.20 | 0.20 | 89 | 1013.5 |
| 20260505050704 | 47 | 258 | 0.0 | 0.0 | 0.00 | 0.20 | 0.20 | 89 | 1013.7 |
| 20260505050204 | 47 | 258 | 0.0 | 0.0 | 0.00 | 0.20 | 0.20 | 89 | 1013.7 |
| 20260505041703 | 48 | 258 | 0.0 | 0.0 | 0.06 | 0.20 | 0.20 | 87 | 1013.8 |
| 20260505041203 | 48 | 258 | 0.0 | 0.0 | 0.07 | 0.20 | 0.20 | 86 | 1014.0 |
| 20260505040704 | 48 | 258 | 0.0 | 0.0 | 0.08 | 0.20 | 0.20 | 86 | 1014.0 |
| 20260505040204 | 48 | 258 | 0.0 | 0.0 | 0.10 | 0.20 | 0.20 | 86 | 1014.0 |
| 20260505035704 | 49 | 258 | 0.0 | 1.0 | 0.10 | 0.20 | 0.20 | 85 | 1014.0 |
| 20260505035204 | 49 | 258 | 0.0 | 0.0 | 0.10 | 0.19 | 0.19 | 85 | 1013.8 |
| 20260505034703 | 49 | 258 | 0.0 | 0.0 | 0.09 | 0.18 | 0.18 | 85 | 1013.8 |
| 20260505033704 | 49 | 258 | 0.0 | 1.0 | 0.07 | 0.16 | 0.16 | 84 | 1014.0 |
| 20260505033204 | 49 | 258 | 0.0 | 1.0 | 0.07 | 0.16 | 0.16 | 83 | 1014.2 |
| 20260505032703 | 49 | 258 | 0.0 | 0.0 | 0.06 | 0.15 | 0.15 | 82 | 1014.1 |
| 20260505032203 | 50 | 258 | 1.0 | 3.0 | 0.05 | 0.14 | 0.14 | 81 | 1014.0 |
| 20260505031204 | 51 | 296 | 1.0 | 5.0 | 0.04 | 0.13 | 0.13 | 79 | 1013.7 |
| 20260505030703 | 51 | 284 | 0.0 | 5.0 | 0.03 | 0.12 | 0.12 | 77 | 1013.6 |
| 20260505030204 | 52 | 334 | 1.0 | 6.0 | 0.01 | 0.10 | 0.10 | 74 | 1013.5 |
| 20260505025704 | 52 | 267 | 1.0 | 6.0 | 0.01 | 0.10 | 0.10 | 72 | 1013.3 |